Location: Unspecified
(59.3293°N, 0.0000°E)
Time: 03:54:35
(UTC+00:00)

ISS - Visible Passes

Search period start: 24 May 2019 00:00
Search period end: 03 June 2019 00:00
Orbit: 408 x 418 km, 51.6° (Epoch: 24 May)

Date Brightness Start Highest point End Pass type
(mag) Time Alt. Az. Time Alt. Az. Time Alt. Az.
24 May -2.3 22:14:43 10° WSW 22:17:19 21° S 22:19:55 10° SE visible
24 May -1.6 23:51:51 10° SW 23:53:07 12° SSW 23:53:07 12° SSW visible
25 May -1.8 23:01:57 10° WSW 23:03:54 15° SSW 23:05:06 13° S visible
26 May -2.0 22:12:20 10° WSW 22:14:39 17° SSW 22:16:57 10° SSE visible
28 May -1.6 22:10:19 10° SW 22:11:51 13° SSW 22:13:22 10° S visible
